sat.trackr.live / text

‹ back to catalog

STARLINK-1679

NORAD 46557 · 2020-070AB

PAYLOAD ACTIVE UNKNOWN

§ Identity

Operator
Country
US
Launch date
2020-10-06
Launch site
AFETR
Launch vehicle
Mass (kg)
RCS (m²)

Purposes: comms

External: N2YO · Heavens-Above · Gunter

§ Orbital elements

Epoch: 2026-07-20T03:17:35.425248Z

Period
88.19 min
Inclination
53.0199°
Eccentricity
0.0003110
Mean motion
16.32773181 rev/d
Perigee alt
183.1 km
Apogee alt
187.1 km
Semi-major
6,563.2 km
B*
7.5121e-4
RAAN
181.8991°
Arg perigee
276.4363°
Mean anomaly
83.6326°
Rev number
32,114

§ Raw data

STARLINK-16791 46557U 20070AB  26201.13721557  .04611541  12167-4  75121-3 0  99902 46557  53.0199 181.8991 0003110 276.4363  83.6326 16.32773181321147

JSON: /api/v1/satellites/46557 · /tle

For live sub-satellite position, see the globe view (requires WebGL).

§ Visibility from observer

Set your observer location to see the next 7 days of passes ≥ 10°. The values pass through the URL so the page stays shareable.

No JS? Fill the form by hand. The geolocation button needs JavaScript.